Lawton, OK

9:12 AM CST on February 26, 2017 (GMT -0600)
Lawton-Fort Sill Regional

Weather History for KLAW - September, 2013

Change the Weather History Date:

Wednesday, September 25, 2013

  Actual Average Record
Temperature  
Mean Temperature 72 °F -  
Max Temperature 93 °F 82 °F 97 °F (1951)
Min Temperature 52 °F 58 °F 43 °F (1975)
Cooling Degree Days 8    
Growing Degree Days 22 (Base 50)    
Moisture  
Dew Point 50 °F    
Average Humidity 49    
Maximum Humidity 86    
Minimum Humidity 21    
Precipitation  
Precipitation 0.00 in - - ()
Sea Level Pressure  
Sea Level Pressure 29.82 in    
Wind  
Wind Speed 4 mph (SSE)    
Max Wind Speed 16 mph    
Max Gust Speed 22 mph    
Visibility 10 miles    
Events      
Averages and records for this station are not official NWS values.
T = Trace of Precipitation, MM = Missing Value Source: NWS Daily Summary

Daily Weather History Graph

Daily Weather History Graph

Search for Another Location

Airport or City:

Trip Planner

Search our weather history database for the weather conditions in past years. The results will help you decide how hot, cold, wet, or windy it might be!

Date:

Astronomy

Sep. 25, 2013 Rise Set
Actual Time 7:24 AM CDT 7:25 PM CDT
Civil Twilight 6:58 AM CDT 7:50 PM CDT
Nautical Twilight 6:29 AM CDT 8:20 PM CDT
Astronomical Twilight 6:00 AM CDT 8:49 PM CDT
Moon 11:46 PM CDT (9/25) 1:18 PM CDT (9/25)
Length of Visible Light 12h 51m
Length of Day
12h 01m
Waning Gibbous, 64% of the Moon is Illuminated
Sep 25
Waning Gibbous
Sep 26
Last Quarter
Oct 4
New
Oct 11
First Quarter
Oct 18
Full

Hourly Weather History & Observations

Time (CDT) Temp. Heat Index Dew Point Humidity Pressure Visibility Wind Dir Wind Speed Gust Speed Precip Events Conditions
12:53 AM 59.0 °F - 48.0 °F 67% 29.88 in 10.0 mi West 3.5 mph - N/A   Clear
1:53 AM 55.9 °F - 48.9 °F 77% 29.88 in 10.0 mi Calm Calm - N/A   Clear
2:53 AM 55.0 °F - 48.9 °F 80% 29.87 in 10.0 mi Calm Calm - N/A   Clear
3:53 AM 53.1 °F - 48.0 °F 83% 29.87 in 10.0 mi Calm Calm - N/A   Clear
4:53 AM 53.1 °F - 48.0 °F 83% 29.87 in 10.0 mi Calm Calm - N/A   Clear
5:53 AM 52.0 °F - 48.0 °F 86% 29.88 in 10.0 mi Calm Calm - N/A   Clear
6:53 AM 52.0 °F - 48.0 °F 86% 29.88 in 10.0 mi Calm Calm - N/A   Clear
7:53 AM 53.1 °F - 48.9 °F 86% 29.90 in 10.0 mi Calm Calm - N/A   Clear
8:53 AM 64.9 °F - 52.0 °F 63% 29.90 in 10.0 mi Calm Calm - N/A   Clear
9:53 AM 71.1 °F - 51.1 °F 49% 29.91 in 10.0 mi ESE 4.6 mph - N/A   Clear
10:53 AM 78.1 °F - 48.9 °F 36% 29.90 in 10.0 mi Variable 3.5 mph - N/A   Unknown
11:53 AM 82.9 °F - 46.9 °F 28% 29.88 in 10.0 mi SE 5.8 mph - N/A   Clear
12:53 PM 87.1 °F - 48.0 °F 26% 29.85 in 10.0 mi SSE 6.9 mph - N/A   Clear
1:53 PM 90.0 °F - 48.0 °F 24% 29.82 in 10.0 mi South 9.2 mph 18.4 mph N/A   Clear
2:53 PM 91.0 °F - 48.0 °F 23% 29.78 in 10.0 mi SSW 9.2 mph - N/A   Clear
3:53 PM 91.9 °F - 48.0 °F 22% 29.75 in 10.0 mi South 8.1 mph - N/A   Clear
4:53 PM 93.0 °F - 48.0 °F 21% 29.74 in 10.0 mi SSE 10.4 mph - N/A   Clear
5:53 PM 91.0 °F - 48.9 °F 23% 29.73 in 10.0 mi SE 16.1 mph 21.9 mph N/A   Clear
6:53 PM 88.0 °F - 52.0 °F 29% 29.73 in 10.0 mi SSE 8.1 mph - N/A   Clear
7:53 PM 82.0 °F 81.3 °F 54.0 °F 38% 29.73 in 10.0 mi SSE 6.9 mph - N/A   Clear
8:53 PM 79.0 °F - 54.0 °F 42% 29.72 in 10.0 mi SE 6.9 mph - N/A   Clear
9:53 PM 80.1 °F - 52.0 °F 38% 29.73 in 10.0 mi SE 10.4 mph - N/A   Clear
10:53 PM 79.0 °F - 51.1 °F 38% 29.74 in 10.0 mi SE 12.7 mph - N/A   Clear
11:53 PM 77.0 °F - 51.1 °F 40% 29.74 in 10.0 mi SE 9.2 mph - N/A   Clear